Regional Weather Roundup
Issued by NWS

Home | Current Version | Previous Version | Graphics & Text | Print | Product List | Glossary On
Versions: 1 2 3 4 5 6 7 8 9 10 11 12 13 14 15 16 17 18 19 20 21 22 23 24 25 26 27 28 29 30 31 32 33 34 35 36 37 38 39 40 41 42 43 44 45 46 47 48 49 50
000
ASUS43 KLOT 211203
RWRIL

ILLINOIS REGIONAL WEATHER ROUNDUP
NATIONAL WEATHER SERVICE CHICAGO/ROMEOVILLE IL
700 AM CDT MON AUG 21 2017

NOTE: "FAIR" INDICATES FEW OR NO CLOUDS BELOW 12,000 FEET WITH NO
SIGNIFICANT WEATHER AND/OR OBSTRUCTIONS TO VISIBILITY.

* THESE STATIONS ARE NOT UNDER NWS QUALITY CONTROL. THEY ALSO MAY NOT
  REPORT WEATHER SUCH AS PRECIPITATION OR FOG.

ILZ001-002-007-009-015-016-024-211300-
NORTHWEST ILLINOIS

CITY           SKY/WX    TMP DP  RH WIND       PRES   REMARKS
MOLINE         CLOUDY    70  67  90 W9        30.09R
6HR MIN TEMP:  65; 6HR MAX TEMP:  70;

STERLING*      PTCLDY    66  66 100 W5        30.07R FOG
SAVANNA*       CLOUDY    66  66  99 CALM      30.09R FOG
$$

ILZ003-004-008-010-011-017-018-211300-
NORTH CENTRAL ILLINOIS

CITY           SKY/WX    TMP DP  RH WIND       PRES   REMARKS
ROCKFORD       CLOUDY    68  66  93 CALM      30.07R
6HR MIN TEMP:  67; 6HR MAX TEMP:  72;

FREEPORT*      FOG       64  64 100 W3        30.09R VSB 1
ROCHELLE*      FOG       67  67 100 CALM      30.07R VSB<1/4
$$

ILZ005-006-012>014-019>023-211300-
NORTHEAST ILLINOIS

CITY           SKY/WX    TMP DP  RH WIND       PRES   REMARKS
CHICAGO-OHARE  CLOUDY    71  68  90 S5        30.05S
6HR MIN TEMP:  71; 6HR MAX TEMP:  74; 6HR PCP:  0.03;

CHICAGO-MIDWAY CLOUDY    73  69  87 SW8       30.05S
6HR MIN TEMP:  73; 6HR MAX TEMP:  77;

AURORA         PTCLDY    69  68  96 CALM      30.07R FOG
6HR MIN TEMP:  69; 6HR MAX TEMP:  71;

LANSING*       CLOUDY    71  67  87 W7        30.06R
JOLIET*        CLOUDY    68  68 100 CALM      30.06S FOG
WAUKEGAN       CLOUDY    68  68 100 CALM      30.05S
6HR MIN TEMP:  67; 6HR MAX TEMP:  73;

DUPAGE AIRPORT MOCLDY    69  69 100 S6        30.06R
6HR MIN TEMP:  69; 6HR MAX TEMP:  72; 6HR PCP: TRACE;

WHEELING       MOCLDY    71  70  96 CALM      30.07S
6HR MIN TEMP:  71; 6HR MAX TEMP:  77;

MORRIS*        CLOUDY    67  66  97 CALM      30.06R FOG
NORTHERLY ISL    N/A     73  67  81 SW5         N/A
$$

LMZ740>746-211300-
SOUTHERN LAKE MICHIGAN

STATION/POSITION SKY/WX   TEMP    WIND        PRES    VSBY  WAVE
                          AIR SEA DIR/SP/G                  HT/PER
                          (F)     (DEG/KT/KT) (MB)    (MI)  (FT/S)
SOUTHERN BUOY              73 72  210/ 14/ 16 1017.5          1/ 3
WILMETTE HARBOR            74 74  230/  6/  6   N/A           1/ 3
HARRISON CRIB              74     210/ 15/ 17   N/A
CALUMET HARBOR             72     180/  5/  9 1017.0S
BURNS HARBOR               73     180/ 10/ 15 1017.9F
MICHIGAN CITY              72     150/ 14/ 18   N/A
MICHIGAN CITY 6N           73 74  180/ 12/ 16   N/A           1/ 2
ST. JOSEPH                 74 74  200/  8/ 10 1017.6F         1/ 3
$$

ILZ025>027-034>036-040-047-049-050-058-095>099-211300-
WEST-CENTRAL ILLINOIS

CITY           SKY/WX    TMP DP  RH WIND       PRES   REMARKS
QUINCY         CLOUDY    71  68  90 S6        30.08R
GALESBURG*     CLOUDY    66  66  99 S3        30.08R
MACOMB*        CLOUDY    67  66  99 CALM      30.09R
$$

ILZ028>032-037-038-041>044-048-051>054-059>061-211300-
CENTRAL ILLINOIS

CITY           SKY/WX    TMP DP  RH WIND       PRES   REMARKS
BLOOMINGTON    FOG       70  70 100 S7        30.10R VSB 3/4
DECATUR        MOCLDY    74  72  93 W3        30.09S
PEORIA         CLOUDY    70  70 100 SW3       30.08R FOG
6HR MIN TEMP:  68; 6HR MAX TEMP:  73;

LACON*         CLOUDY    68  68 100 CALM      30.06R
LINCOLN*       CLOUDY    71  71 100 CALM      30.08S FOG
SPRINGFIELD    MOCLDY    76  74  93 S7        30.09R
6HR MIN TEMP:  70; 6HR MAX TEMP:  76;

TAYLORVILLE    NOT AVBL
$$

ILZ033-039-045-046-055>057-062-063-211300-
EAST-CENTRAL ILLINOIS

CITY           SKY/WX    TMP DP  RH WIND       PRES   REMARKS
CHAMPAIGN      CLOUDY    72  70  93 SW7       30.10R
RANTOUL*       CLOUDY    73  73  99 SW6       30.09S FOG
MATTOON        CLOUDY    74  72  93 S8        30.10S
PARIS*         PTCLDY    73  72  95 SW6       30.11S
$$

ILZ079-100>102-211300-
SOUTHWEST ILLINOIS

CITY           SKY/WX    TMP DP  RH WIND       PRES   REMARKS
ALTON          MOCLDY    72  72 100 SE6       30.10R
BELLEVILLE     PTCLDY    72  70  94 CALM      30.11S
CAHOKIA*       CLEAR     75  71  87 SE3       30.10R
SPARTA*        CLEAR     71  71  98 CALM      30.13R
$$

ILZ064>066-069>071-074>076-080>082-084>086-088>090-092>094-211300-
SOUTH-CENTRAL ILLINOIS

CITY           SKY/WX    TMP DP  RH WIND       PRES   REMARKS
CARBONDALE     CLEAR     70  70 100 CALM      30.13R
6HR MIN TEMP:  68; 6HR MAX TEMP:  72;

EFFINGHAM*     MOCLDY    73  73  97 S5        30.13S
MARION         PTCLDY    73  73 100 SE5       30.14R
MT. VERNON       N/A     69  69 100 CALM      30.13S
CENTRALIA*     PTCLDY    72  71  96 N3        30.11S
SALEM*         PTCLDY    74  70  88 CALM      30.12S
METROPOLIS*    CLEAR     69  69  98 CALM      30.14R
$$

ILZ067-068-072-073-078-083-087-091-211300-
SOUTHEAST ILLINOIS

CITY           SKY/WX    TMP DP  RH WIND       PRES   REMARKS
LAWRENCEVILLE  PTCLDY    72  69  90 CALM      30.13S
FLORA*         PTCLDY    72  71  96 CALM      30.12S FOG
FAIRFIELD*     CLEAR     71  71 100 CALM      30.12S FOG
HARRISBURG*    CLEAR     69  68  98 CALM      30.14R
ROBINSON*      CLOUDY    69  69  99 S3        30.13S
CARMI*         CLEAR     68  68 100 SE3       30.13S FOG
$$

ABBREVIATIONS USED IN REMARKS
   TC - TEMPERATURE IN CELSIUS
  WCI - WIND CHILL INDEX
   HX - HEAT INDEX
  VSB - VISIBILITY
$$





USA.gov is the U.S. government's official web portal to all federal, state and local government web resources and services.